Satellite: RS-30
Catalog number: 32953
Epoch time:      11349.56913268
Element set:     345
Inclination:      082.5034 deg
RA of node:       049.9478 deg
Eccentricity:    0.0018489
Arg of perigee:   355.0020 deg
Mean anomaly:     005.0877 deg
Mean motion:   12.43018344 rev/day
Decay rate:        1.0e-07 rev/day^2
Epoch rev:           16162
Checksum:              288

Satellite: TACSAT-3
Catalog number: 35001
Epoch time:      11349.82348293
Element set:     797
Inclination:      040.4513 deg
RA of node:       141.8005 deg
Eccentricity:    0.0005287
Arg of perigee:   105.8579 deg
Mean anomaly:     254.2827 deg
Mean motion:   15.64018873 rev/day
Decay rate:     7.4321e-04 rev/day^2
Epoch rev:           14534
Checksum:              300

Satellite: PHARMSAT
Catalog number: 35002
Epoch time:      11349.83812261
Element set:     736
Inclination:      040.4712 deg
RA of node:       142.2485 deg
Eccentricity:    0.0010870
Arg of perigee:   141.7757 deg
Mean anomaly:     218.3837 deg
Mean motion:   15.59606034 rev/day
Decay rate:     5.0830e-04 rev/day^2
Epoch rev:           14534
Checksum:              278

Satellite: HAWKSAT1
Catalog number: 35003
Epoch time:      11276.79285837
Element set:     811
Inclination:      040.4398 deg
RA of node:       174.3672 deg
Eccentricity:    0.0011414
Arg of perigee:   274.3918 deg
Mean anomaly:     085.3844 deg
Mean motion:   16.13812532 rev/day
Decay rate:   2.274821e-02 rev/day^2
Epoch rev:           13457
Checksum:              306

Satellite: CP6
Catalog number: 35004
Epoch time:      11247.64656856
Element set:     784
Inclination:      040.4403 deg
RA of node:       342.9642 deg
Eccentricity:    0.0002956
Arg of perigee:   038.0069 deg
Mean anomaly:     322.2231 deg
Mean motion:   16.41039951 rev/day
Decay rate:  1.6152067e-01 rev/day^2
Epoch rev:           13013
Checksum:              285

Satellite: METEOR-M
Catalog number: 35865
Epoch time:      11349.70867547
Element set:     982
Inclination:      098.6827 deg
RA of node:       042.2529 deg
Eccentricity:    0.0001771
Arg of perigee:   217.3214 deg
Mean anomaly:     142.7841 deg
Mean motion:   14.21851207 rev/day
Decay rate:        3.1e-07 rev/day^2
Epoch rev:           11638
Checksum:              300

Satellite: RS-38
Catalog number: 35869
Epoch time:      11349.61523802
Element set:     970
Inclination:      098.6792 deg
RA of node:       042.1822 deg
Eccentricity:    0.0003966
Arg of perigee:   221.1162 deg
Mean anomaly:     138.9726 deg
Mean motion:   14.22044289 rev/day
Decay rate:       1.21e-06 rev/day^2
Epoch rev:           11638
Checksum:              307

Satellite: ARISSAT1
Catalog number: 37772
Epoch time:      11349.78566644
Element set:     410
Inclination:      051.6343 deg
RA of node:       316.9837 deg
Eccentricity:    0.0008591
Arg of perigee:   123.8765 deg
Mean anomaly:     312.8303 deg
Mean motion:   15.94498668 rev/day
Decay rate:    4.02193e-03 rev/day^2
Epoch rev:            2097
Checksum:              333

Satellite: SRMSAT
Catalog number: 37839
Epoch time:      11347.46882072
Element set:    0051
Inclination:      019.9591 deg
RA of node:       049.3605 deg
Eccentricity:    0.0019241
Arg of perigee:   327.1509 deg
Mean anomaly:     032.7697 deg
Mean motion:   14.12005612 rev/day
Decay rate:       6.19e-06 rev/day^2
Epoch rev:           00882
Checksum:              293

Satellite: JUGNU
Catalog number: 37841
Epoch time:      11348.47284851
Element set:    0048
Inclination:      019.9701 deg
RA of node:       044.5172 deg
Eccentricity:    0.0011918
Arg of perigee:   313.2184 deg
Mean anomaly:     046.7163 deg
Mean motion:   14.10098656 rev/day
Decay rate:       2.64e-06 rev/day^2
Epoch rev:           00895
Checksum:              293

Satellite: RAX-2
Catalog number: 37853
Epoch time:      11348.97707453
Element set:    0045
Inclination:      101.7040 deg
RA of node:       300.1986 deg
Eccentricity:    0.0253463
Arg of perigee:   158.2468 deg
Mean anomaly:     202.9720 deg
Mean motion:   14.78206784 rev/day
Decay rate:      4.727e-05 rev/day^2
Epoch rev:           00702
Checksum:              300

Satellite: AUBIESAT
Catalog number: 37854
Epoch time:      11348.97076575
Element set:    0049
Inclination:      101.7074 deg
RA of node:       300.2253 deg
Eccentricity:    0.0255367
Arg of perigee:   157.7228 deg
Mean anomaly:     203.5291 deg
Mean motion:   14.78432477 rev/day
Decay rate:      5.386e-05 rev/day^2
Epoch rev:           00700
Checksum:              304

Satellite: HRBE
Catalog number: 37855
Epoch time:      11349.85157742
Element set:      44
Inclination:      101.7081 deg
RA of node:       301.5043 deg
Eccentricity:    0.0254897
Arg of perigee:   155.2214 deg
Mean anomaly:     206.1479 deg
Mean motion:   14.78388838 rev/day
Decay rate:      4.692e-05 rev/day^2
Epoch rev:             713
Checksum:              309

/EX


_______________________________________________
Via the Keps mailing list courtesy of AMSAT-NA
http://amsat.org/mailman/listinfo/keps

--- ViaMAIL!/WC v1.60d
 * Origin: Chowdanet (401-724-4410) telnet://chowdanet.com  (1:323/120)